Flag for Japan Weather past 2 weeks in Fukuoka, Japan

Now
72 °F

Sprinkles. Passing clouds.


Feels Like: 67 °F
Forecast: 69 / 76 °F
Wind: 6 mph from Northwest

Location: Fukuoka Airport

Current Time: Oct 2, 2014 at 11:12:20 PM

Latest Report: Oct 2, 2014 at 10:30 PM


Visibility: N/A

Pressure: 29.77 "Hg

Humidity: 94%

Dew point: 70 °F

Location of FukuokaLocation

Historic Weather in Fukuoka — Graph

°F

Fukuoka temperature yesterday

Maximum temperature yesterday: 77 °F (at 10:30 AM)
Minimum temperature yesterday: 68 °F (at 11:30 PM)
Average temperature yesterday: 73 °F

Past Weeks' High & Low Weather Summary

 TemperatureHumidityPressure
High84 °F (Sep 29, 2:00 PM)100% (Sep 25, 12:30 AM)30.04 "Hg (Sep 25, 12:30 AM)
Low61 °F (Sep 20, 6:30 AM)37% (Sep 29, 11:00 AM)29.62 "Hg (Sep 24, 3:30 PM)
Average73 °F74%29.91 "Hg
* Reported Sep 17 10:00 PM — Oct 2 10:00 PM, Fukuoka, Weather by CustomWeather, © 2014

Note: Actual official high and low records may vary slightly from our data, if they occured in-between our weather recording intervals... More about our weather records

Advertising

Fukuoka weather history for previous 24 hours

 ConditionsComfort  
Time TempWeatherWind HumidityBarometerVisibility
10:00 PM
Oct 2
73 °FPassing clouds.5 mph83%29.77 "HgN/A
9:30 PM73 °FPassing clouds.6 mph83%29.77 "HgN/A
9:00 PM73 °FPassing clouds.6 mph89%29.77 "HgN/A
8:30 PM73 °FPassing clouds.2 mph89%29.77 "HgN/A
8:00 PM73 °FPassing clouds.2 mph83%29.77 "HgN/A
7:30 PM73 °FPassing clouds.3 mph83%29.77 "HgN/A
7:00 PM73 °FPassing clouds.3 mph89%29.74 "HgN/A
6:30 PM73 °FSprinkles. Partly cloudy.3 mph89%29.74 "HgN/A
6:00 PM73 °FBroken clouds.3 mph89%29.74 "HgN/A
5:30 PM73 °FBroken clouds.1 mph89%29.74 "HgN/A
5:00 PM73 °FSprinkles. Broken clouds.7 mph89%29.74 "HgN/A
4:30 PM75 °FSprinkles. Broken clouds.2 mph78%29.74 "HgN/A
4:00 PM75 °FBroken clouds.3 mph78%29.74 "HgN/A
3:30 PM75 °FBroken clouds.5 mph78%29.74 "HgN/A
3:00 PM75 °FBroken clouds.6 mph78%29.74 "HgN/A
2:30 PM75 °FBroken clouds.12 mph74%29.74 "HgN/A
2:00 PM75 °FSprinkles. Partly sunny.12 mph78%29.74 "HgN/A
1:30 PM75 °FScattered showers. Broken clouds.3 mph74%29.77 "HgN/A
1:00 PM75 °FSprinkles. Broken clouds.9 mph83%29.77 "HgN/A
12:30 PM75 °FSprinkles. Broken clouds.12 mph83%29.77 "Hg5 mi
12:00 PM75 °FSprinkles. Broken clouds.12 mph89%29.77 "HgN/A
11:30 AM75 °FSprinkles. Broken clouds.16 mph83%29.77 "HgN/A
11:00 AM75 °FSprinkles. Broken clouds.16 mph78%29.77 "HgN/A
10:30 AM75 °FPartly sunny.16 mph78%29.80 "HgN/A
10:00 AM77 °FBroken clouds.12 mph74%29.80 "HgN/A
9:30 AM75 °FBroken clouds.9 mph78%29.80 "HgN/A
9:00 AM73 °FBroken clouds.5 mph83%29.80 "HgN/A
8:30 AM72 °FBroken clouds.6 mph88%29.83 "HgN/A
8:00 AM72 °FBroken clouds.2 mph88%29.83 "HgN/A
7:30 AM70 °FPartly sunny.No wind94%29.83 "HgN/A
7:00 AM70 °FPartly sunny.No wind94%29.83 "HgN/A
6:30 AM70 °FSprinkles. Partly sunny.3 mph94%29.80 "HgN/A
6:00 AM70 °FSprinkles. Passing clouds.3 mph94%29.83 "HgN/A
5:30 AM70 °FPassing clouds.2 mph94%29.83 "HgN/A
5:00 AM70 °FPassing clouds.2 mph94%29.83 "HgN/A
4:30 AM70 °FPartly cloudy.1 mph94%29.83 "HgN/A
4:00 AM70 °FPartly cloudy.2 mph94%29.83 "HgN/A
3:30 AM70 °FPassing clouds.1 mph94%29.83 "HgN/A
3:00 AM68 °FPartly cloudy.1 mph100%29.86 "HgN/A
2:30 AM68 °FSprinkles. Fog.6 mph100%29.86 "Hg3 mi
2:00 AM68 °FSprinkles. Fog.2 mph100%29.86 "Hg1 mi
1:30 AM68 °FRain showers. Fog.2 mph100%29.89 "Hg1 mi
1:00 AM68 °FSprinkles. Fog.1 mph100%29.89 "Hg2 mi
12:30 AM68 °FSprinkles. Fog.2 mph100%29.89 "Hg2 mi
12:00 AM68 °FRain showers. Fog.No wind100%29.92 "Hg2 mi
11:30 PM
Oct 1
68 °FRain showers. Fog.1 mph100%29.92 "Hg2 mi
11:00 PM70 °FRain showers. Fog.2 mph94%29.92 "Hg2 mi
Weather by CustomWeather, © 2014

See weather overviewHow to use our weather pages